| time (UTC) | temp F | wind direction | speed MPH | gust MPH | rain 1hr in | rain 24hr in | rain mn in | humidity % | barometer mb |
| 20260503222416 | 52 | 167 | 0.0 | 0.0 | 0.00 | 0.00 | 0.00 | 76 | 1015.5 |
| 20260503222214 | 52 | 172 | 0.0 | 0.0 | 0.00 | 0.00 | 0.00 | 76 | 1015.4 |
| 20260503222006 | 52 | 172 | 0.0 | 0.0 | 0.00 | 0.00 | 0.00 | 75 | 1015.5 |
| 20260503221805 | 52 | 151 | 0.0 | 1.0 | 0.00 | 0.00 | 0.00 | 76 | 1015.5 |
| 20260503221557 | 52 | 105 | 0.0 | 1.0 | 0.00 | 0.00 | 0.00 | 76 | 1015.6 |
| 20260503221349 | 52 | 105 | 0.0 | 1.0 | 0.00 | 0.00 | 0.00 | 76 | 1015.5 |
| 20260503221147 | 52 | 208 | 0.0 | 1.0 | 0.00 | 0.00 | 0.00 | 76 | 1015.5 |
| 20260503220947 | 52 | 206 | 0.0 | 1.0 | 0.00 | 0.00 | 0.00 | 75 | 1015.6 |
| 20260503220741 | 52 | 207 | 0.0 | 1.0 | 0.00 | 0.00 | 0.00 | 76 | 1015.6 |
| 20260503220532 | 53 | 197 | 0.0 | 0.0 | 0.00 | 0.00 | 0.00 | 76 | 1015.7 |
| 20260503220333 | 53 | 197 | 0.0 | 0.0 | 0.00 | 0.00 | 0.00 | 76 | 1015.6 |
| 20260503220129 | 53 | 197 | 0.0 | 0.0 | 0.00 | 0.00 | 0.00 | 76 | 1015.6 |
| 20260503215920 | 53 | 197 | 0.0 | 0.0 | 0.00 | 0.00 | 0.00 | 76 | 1015.6 |
| 20260503215717 | 53 | 197 | 0.0 | 0.0 | 0.00 | 0.00 | 0.00 | 76 | 1015.5 |
| 20260503215518 | 53 | 178 | 0.0 | 0.0 | 0.00 | 0.00 | 0.00 | 76 | 1015.5 |
| 20260503215312 | 53 | 178 | 0.0 | 0.0 | 0.00 | 0.00 | 0.00 | 75 | 1015.6 |
| 20260503215106 | 53 | 200 | 0.0 | 0.0 | 0.00 | 0.00 | 0.00 | 75 | 1015.5 |
| 20260503214857 | 53 | 205 | 0.0 | 3.0 | 0.00 | 0.00 | 0.00 | 75 | 1015.5 |
| 20260503214651 | 53 | 238 | 0.0 | 3.0 | 0.00 | 0.00 | 0.00 | 76 | 1015.5 |
| 20260503214125 | 52 | 198 | 0.0 | 3.0 | 0.00 | 0.00 | 0.00 | 76 | 1015.4 |
| 20260503213922 | 52 | 211 | 0.0 | 3.0 | 0.00 | 0.00 | 0.00 | 76 | 1015.4 |
| 20260503213720 | 52 | 224 | 0.0 | 3.0 | 0.00 | 0.00 | 0.00 | 77 | 1015.4 |
| 20260503213510 | 52 | 207 | 0.0 | 3.0 | 0.00 | 0.00 | 0.00 | 77 | 1015.5 |
| 20260503213303 | 52 | 195 | 0.0 | 3.0 | 0.00 | 0.00 | 0.00 | 78 | 1015.5 |
| 20260503212741 | 52 | 98 | 0.0 | 3.0 | 0.00 | 0.00 | 0.00 | 79 | 1015.4 |
| 20260503212535 | 51 | 192 | 0.0 | 3.0 | 0.00 | 0.00 | 0.00 | 80 | 1015.5 |
| 20260503212331 | 51 | 163 | 0.0 | 3.0 | 0.00 | 0.00 | 0.00 | 80 | 1015.4 |
| 20260503211807 | 51 | 99 | 0.0 | 3.0 | 0.00 | 0.00 | 0.00 | 80 | 1015.3 |
| 20260503211558 | 51 | 89 | 0.0 | 3.0 | 0.00 | 0.00 | 0.00 | 79 | 1015.3 |
| 20260503211354 | 51 | 205 | 0.0 | 0.0 | 0.00 | 0.00 | 0.00 | 79 | 1015.3 |
| 20260503210828 | 51 | 184 | 0.0 | 0.0 | 0.00 | 0.00 | 0.00 | 80 | 1015.4 |
| 20260503210621 | 51 | 139 | 0.0 | 3.0 | 0.00 | 0.00 | 0.00 | 80 | 1015.4 |
| 20260503205731 | 51 | 134 | 0.0 | 1.0 | 0.00 | 0.00 | 0.00 | 81 | 1015.3 |
| 20260503205527 | 51 | 89 | 0.0 | 1.0 | 0.00 | 0.00 | 0.00 | 80 | 1015.3 |
| 20260503205323 | 51 | 210 | 0.0 | 0.0 | 0.00 | 0.00 | 0.00 | 80 | 1015.4 |
| 20260503205121 | 51 | 210 | 0.0 | 1.0 | 0.00 | 0.00 | 0.00 | 80 | 1015.4 |
| 20260503204919 | 51 | 210 | 0.0 | 3.0 | 0.00 | 0.00 | 0.00 | 80 | 1015.3 |
| 20260503204356 | 51 | 227 | 0.0 | 3.0 | 0.00 | 0.00 | 0.00 | 80 | 1015.3 |
| 20260503203831 | 51 | 228 | 0.0 | 3.0 | 0.00 | 0.00 | 0.00 | 80 | 1015.3 |
| 20260503203629 | 51 | 228 | 0.0 | 3.0 | 0.00 | 0.00 | 0.00 | 80 | 1015.3 |
| 20260503203427 | 51 | 241 | 0.0 | 3.0 | 0.00 | 0.00 | 0.00 | 80 | 1015.3 |
| 20260503203218 | 50 | 232 | 0.0 | 3.0 | 0.00 | 0.00 | 0.00 | 80 | 1015.3 |
| 20260503203016 | 50 | 216 | 0.0 | 2.0 | 0.00 | 0.00 | 0.00 | 80 | 1015.2 |
| 20260503202127 | 51 | 231 | 0.0 | 1.0 | 0.00 | 0.00 | 0.00 | 81 | 1015.3 |
| 20260503201928 | 51 | 231 | 0.0 | 1.0 | 0.00 | 0.00 | 0.00 | 81 | 1015.2 |
| 20260503201726 | 51 | 231 | 0.0 | 1.0 | 0.00 | 0.00 | 0.00 | 81 | 1015.2 |
| 20260503201523 | 51 | 231 | 0.0 | 1.0 | 0.00 | 0.00 | 0.00 | 81 | 1015.2 |
| 20260503201315 | 51 | 231 | 0.0 | 0.0 | 0.00 | 0.00 | 0.00 | 81 | 1015.0 |
| 20260503200747 | 51 | 231 | 0.0 | 0.0 | 0.00 | 0.00 | 0.00 | 81 | 1015.2 |
| 20260503200539 | 51 | 231 | 0.0 | 0.0 | 0.00 | 0.00 | 0.00 | 82 | 1015.2 |
| 20260503195654 | 51 | 238 | 1.0 | 3.0 | 0.00 | 0.00 | 0.00 | 82 | 1015.1 |
| 20260503195446 | 51 | 238 | 1.0 | 3.0 | 0.00 | 0.00 | 0.00 | 83 | 1015.1 |
| 20260503195247 | 51 | 239 | 1.0 | 3.0 | 0.00 | 0.00 | 0.00 | 83 | 1015.2 |
| 20260503195038 | 51 | 238 | 1.0 | 3.0 | 0.00 | 0.00 | 0.00 | 83 | 1015.2 |
| 20260503194156 | 51 | 233 | 0.0 | 4.0 | 0.00 | 0.00 | 0.00 | 84 | 1015.0 |
| 20260503193953 | 51 | 229 | 0.0 | 4.0 | 0.00 | 0.00 | 0.00 | 84 | 1014.9 |
| 20260503193750 | 51 | 226 | 0.0 | 4.0 | 0.00 | 0.00 | 0.00 | 84 | 1014.9 |
| 20260503193541 | 51 | 239 | 0.0 | 4.0 | 0.00 | 0.00 | 0.00 | 85 | 1014.9 |
| 20260503193339 | 51 | 239 | 1.0 | 4.0 | 0.00 | 0.00 | 0.00 | 85 | 1014.9 |
| 20260503193138 | 51 | 239 | 1.0 | 4.0 | 0.00 | 0.00 | 0.00 | 85 | 1014.8 |
| 20260503192938 | 51 | 229 | 2.0 | 4.0 | 0.00 | 0.00 | 0.00 | 84 | 1014.8 |
| 20260503192731 | 51 | 235 | 2.0 | 4.0 | 0.00 | 0.00 | 0.00 | 84 | 1014.8 |
| 20260503192530 | 51 | 229 | 2.0 | 4.0 | 0.00 | 0.00 | 0.00 | 84 | 1014.8 |
| 20260503192329 | 51 | 223 | 2.0 | 4.0 | 0.00 | 0.00 | 0.00 | 84 | 1014.9 |
| 20260503191814 | 51 | 240 | 1.0 | 3.0 | 0.00 | 0.00 | 0.00 | 84 | 1014.7 |
| 20260503191604 | 52 | 241 | 0.0 | 3.0 | 0.00 | 0.00 | 0.00 | 83 | 1014.8 |
| 20260503191358 | 52 | 240 | 0.0 | 3.0 | 0.00 | 0.00 | 0.00 | 83 | 1014.7 |
| 20260503191158 | 52 | 234 | 0.0 | 3.0 | 0.00 | 0.00 | 0.00 | 83 | 1014.6 |
| 20260503190952 | 52 | 127 | 0.0 | 0.0 | 0.00 | 0.00 | 0.00 | 81 | 1014.6 |
| 20260503190746 | 52 | 127 | 0.0 | 0.0 | 0.00 | 0.00 | 0.00 | 81 | 1014.6 |
| 20260503190541 | 52 | 127 | 0.0 | 0.0 | 0.00 | 0.00 | 0.00 | 81 | 1014.5 |
| 20260503190336 | 52 | 127 | 0.0 | 0.0 | 0.00 | 0.00 | 0.00 | 81 | 1014.5 |
| 20260503190131 | 52 | 117 | 0.0 | 0.0 | 0.00 | 0.00 | 0.00 | 81 | 1014.6 |
| 20260503185931 | 52 | 117 | 0.0 | 4.0 | 0.00 | 0.00 | 0.00 | 81 | 1014.6 |
| 20260503185721 | 52 | 111 | 0.0 | 10.0 | 0.00 | 0.00 | 0.00 | 81 | 1014.5 |
| 20260503185519 | 52 | 196 | 1.0 | 10.0 | 0.00 | 0.00 | 0.00 | 81 | 1014.5 |
| 20260503185309 | 52 | 234 | 2.0 | 10.0 | 0.00 | 0.00 | 0.00 | 81 | 1014.5 |
| 20260503185102 | 52 | 131 | 2.0 | 10.0 | 0.00 | 0.00 | 0.00 | 80 | 1014.5 |
| 20260503184851 | 53 | 98 | 2.0 | 10.0 | 0.00 | 0.00 | 0.00 | 80 | 1014.5 |
| 20260503184646 | 53 | 105 | 3.0 | 10.0 | 0.00 | 0.00 | 0.00 | 80 | 1014.3 |
| 20260503184446 | 53 | 118 | 4.0 | 10.0 | 0.00 | 0.00 | 0.00 | 80 | 1014.4 |
| 20260503184240 | 53 | 98 | 4.0 | 10.0 | 0.00 | 0.00 | 0.00 | 80 | 1014.3 |
| 20260503184031 | 53 | 102 | 5.0 | 10.0 | 0.00 | 0.00 | 0.00 | 80 | 1014.4 |
| 20260503183507 | 53 | 88 | 5.0 | 9.0 | 0.00 | 0.00 | 0.00 | 79 | 1014.3 |
| 20260503183258 | 52 | 110 | 5.0 | 9.0 | 0.00 | 0.00 | 0.00 | 80 | 1014.2 |
| 20260503182735 | 51 | 104 | 4.0 | 9.0 | 0.00 | 0.00 | 0.00 | 83 | 1014.2 |
| 20260503182535 | 51 | 115 | 3.0 | 9.0 | 0.00 | 0.00 | 0.00 | 84 | 1014.2 |
| 20260503182328 | 51 | 117 | 3.0 | 6.0 | 0.00 | 0.00 | 0.00 | 85 | 1014.2 |
| 20260503182128 | 51 | 86 | 2.0 | 6.0 | 0.00 | 0.00 | 0.00 | 85 | 1014.2 |
| 20260503181926 | 51 | 123 | 3.0 | 7.0 | 0.00 | 0.00 | 0.00 | 85 | 1014.2 |
| 20260503181722 | 51 | 113 | 3.0 | 7.0 | 0.00 | 0.00 | 0.00 | 85 | 1014.2 |
| 20260503181514 | 51 | 112 | 3.0 | 7.0 | 0.00 | 0.00 | 0.00 | 84 | 1014.1 |
| 20260503181310 | 52 | 69 | 4.0 | 7.0 | 0.00 | 0.00 | 0.00 | 83 | 1014.2 |
| 20260503180745 | 51 | 116 | 4.0 | 7.0 | 0.00 | 0.00 | 0.00 | 84 | 1014.4 |
| 20260503180537 | 51 | 132 | 4.0 | 7.0 | 0.00 | 0.00 | 0.00 | 84 | 1014.4 |
| 20260503180331 | 51 | 110 | 3.0 | 7.0 | 0.00 | 0.00 | 0.00 | 83 | 1014.4 |
| 20260503180128 | 51 | 98 | 2.0 | 7.0 | 0.00 | 0.00 | 0.00 | 83 | 1014.5 |
| 20260503175600 | 52 | 103 | 1.0 | 8.0 | 0.00 | 0.00 | 0.00 | 82 | 1014.9 |
| 20260503175359 | 51 | 101 | 2.0 | 8.0 | 0.00 | 0.00 | 0.00 | 82 | 1014.8 |
| 20260503175159 | 51 | 205 | 2.0 | 8.0 | 0.00 | 0.00 | 0.00 | 82 | 1014.9 |
| 20260503174952 | 51 | 230 | 2.0 | 8.0 | 0.00 | 0.00 | 0.00 | 83 | 1015.0 |
| 20260503174744 | 51 | 223 | 3.0 | 8.0 | 0.00 | 0.00 | 0.00 | 84 | 1014.9 |
| 20260503174543 | 51 | 235 | 3.0 | 11.0 | 0.00 | 0.00 | 0.00 | 84 | 1014.9 |
| 20260503174338 | 51 | 236 | 4.0 | 11.0 | 0.00 | 0.00 | 0.00 | 84 | 1015.0 |
| 20260503174135 | 51 | 246 | 5.0 | 11.0 | 0.00 | 0.00 | 0.00 | 83 | 1014.9 |
| 20260503173935 | 52 | 250 | 5.0 | 11.0 | 0.00 | 0.00 | 0.00 | 83 | 1014.9 |
| 20260503173729 | 52 | 248 | 5.0 | 11.0 | 0.00 | 0.00 | 0.00 | 83 | 1015.0 |
| 20260503173527 | 52 | 231 | 5.0 | 12.0 | 0.00 | 0.00 | 0.00 | 82 | 1015.0 |
| 20260503173326 | 52 | 214 | 5.0 | 12.0 | 0.00 | 0.00 | 0.00 | 82 | 1015.0 |
| 20260503173122 | 52 | 292 | 6.0 | 12.0 | 0.00 | 0.00 | 0.00 | 81 | 1015.1 |
| 20260503172916 | 52 | 224 | 6.0 | 12.0 | 0.00 | 0.00 | 0.00 | 81 | 1015.0 |
| 20260503172715 | 52 | 233 | 7.0 | 12.0 | 0.00 | 0.00 | 0.00 | 80 | 1015.0 |
| 20260503172158 | 53 | 232 | 8.0 | 12.0 | 0.00 | 0.00 | 0.00 | 78 | 1015.0 |
| 20260503171630 | 53 | 238 | 8.0 | 12.0 | 0.00 | 0.00 | 0.00 | 76 | 1014.9 |
| 20260503171421 | 53 | 244 | 8.0 | 11.0 | 0.00 | 0.00 | 0.00 | 75 | 1015.0 |
| 20260503171214 | 53 | 233 | 7.0 | 11.0 | 0.00 | 0.00 | 0.00 | 75 | 1014.9 |
| 20260503171007 | 54 | 236 | 7.0 | 11.0 | 0.00 | 0.00 | 0.00 | 75 | 1014.9 |
| 20260503170806 | 54 | 250 | 7.0 | 10.0 | 0.00 | 0.00 | 0.00 | 75 | 1015.0 |
| 20260503170601 | 54 | 238 | 7.0 | 10.0 | 0.00 | 0.00 | 0.00 | 74 | 1015.0 |
| 20260503170350 | 54 | 241 | 7.0 | 8.0 | 0.00 | 0.00 | 0.00 | 75 | 1015.0 |
| 20260503160205 | 55 | 251 | 6.0 | 13.0 | 0.00 | 0.00 | 0.00 | 71 | 1015.6 |
| 20260503150936 | 56 | 265 | 8.0 | 12.0 | 0.00 | 0.00 | 0.00 | 68 | 1015.9 |
| 20260503150736 | 56 | 233 | 7.0 | 12.0 | 0.00 | 0.00 | 0.00 | 68 | 1016.0 |
| 20260503150409 | 56 | 233 | 6.0 | 14.0 | 0.00 | 0.00 | 0.00 | 68 | 1016.1 |
| 20260503140103 | 59 | 240 | 3.0 | 8.0 | 0.00 | 0.00 | 0.00 | 60 | 1016.2 |
| 20260503131302 | 59 | 242 | 7.0 | 14.0 | 0.00 | 0.00 | 0.00 | 58 | 1016.2 |
| 20260503130738 | 58 | 248 | 7.0 | 12.0 | 0.00 | 0.00 | 0.00 | 59 | 1016.2 |
| 20260503130528 | 58 | 240 | 7.0 | 12.0 | 0.00 | 0.00 | 0.00 | 63 | 1016.2 |
| 20260503130327 | 58 | 246 | 7.0 | 17.0 | 0.00 | 0.00 | 0.00 | 65 | 1016.3 |
| 20260503130124 | 58 | 230 | 7.0 | 17.0 | 0.00 | 0.00 | 0.00 | 67 | 1016.3 |
| 20260503110721 | 64 | 240 | 1.0 | 4.0 | 0.00 | 0.00 | 0.00 | 66 | 1015.6 |
| 20260503090420 | 61 | 269 | 0.0 | 3.0 | 0.00 | 0.00 | 0.00 | 68 | 1015.9 |
| 20260503081502 | 58 | 311 | 0.0 | 0.0 | 0.00 | 0.00 | 0.00 | 77 | 1015.8 |
| 20260503081258 | 58 | 311 | 0.0 | 0.0 | 0.00 | 0.00 | 0.00 | 78 | 1015.9 |
| 20260503080727 | 57 | 311 | 0.0 | 0.0 | 0.00 | 0.00 | 0.00 | 74 | 1015.9 |
| 20260503072747 | 57 | 66 | 0.0 | 3.0 | 0.00 | 0.00 | 0.00 | 74 | 1015.8 |
| 20260503072537 | 57 | 56 | 0.0 | 3.0 | 0.00 | 0.00 | 0.00 | 73 | 1015.9 |
| 20260503071347 | 57 | 240 | 0.0 | 2.0 | 0.00 | 0.00 | 0.00 | 74 | 1016.4 |
| 20260503071138 | 57 | 240 | 0.0 | 2.0 | 0.00 | 0.00 | 0.00 | 73 | 1016.5 |
| 20260503070938 | 57 | 247 | 0.0 | 0.0 | 0.00 | 0.00 | 0.00 | 74 | 1016.5 |
| 20260503070734 | 57 | 126 | 0.0 | 0.0 | 0.00 | 0.00 | 0.00 | 76 | 1016.4 |
| 20260503070533 | 57 | 116 | 0.0 | 0.0 | 0.00 | 0.00 | 0.00 | 77 | 1016.5 |
| 20260503070331 | 57 | 116 | 0.0 | 0.0 | 0.00 | 0.00 | 0.00 | 78 | 1016.5 |
| 20260503055128 | 53 | 37 | 1.0 | 6.0 | 0.00 | 0.00 | 0.00 | 81 | 1016.5 |
| 20260503054921 | 53 | 244 | 1.0 | 6.0 | 0.00 | 0.00 | 0.00 | 80 | 1016.8 |
| 20260503054714 | 53 | 240 | 1.0 | 6.0 | 0.00 | 0.00 | 0.00 | 81 | 1016.8 |
| 20260503054504 | 53 | 231 | 0.0 | 6.0 | 0.00 | 0.00 | 0.00 | 80 | 1016.5 |
| 20260503054254 | 53 | 208 | 1.0 | 6.0 | 0.00 | 0.00 | 0.00 | 81 | 1016.6 |
| 20260503054050 | 53 | 210 | 1.0 | 6.0 | 0.00 | 0.00 | 0.00 | 81 | 1016.6 |
| 20260503053529 | 53 | 272 | 2.0 | 6.0 | 0.00 | 0.00 | 0.00 | 81 | 1016.5 |
| 20260503053321 | 53 | 85 | 2.0 | 6.0 | 0.00 | 0.00 | 0.00 | 81 | 1016.4 |
| 20260503053113 | 53 | 101 | 1.0 | 6.0 | 0.00 | 0.00 | 0.00 | 81 | 1016.3 |
| 20260503052905 | 53 | 133 | 0.0 | 5.0 | 0.00 | 0.00 | 0.00 | 80 | 1016.2 |
| 20260503052337 | 53 | 83 | 0.0 | 0.0 | 0.00 | 0.00 | 0.00 | 78 | 1016.2 |
| 20260503052138 | 53 | 112 | 0.0 | 1.0 | 0.00 | 0.00 | 0.00 | 78 | 1016.3 |
| 20260503051938 | 53 | 102 | 0.0 | 0.0 | 0.00 | 0.00 | 0.00 | 79 | 1016.4 |
| 20260503051738 | 53 | 102 | 0.0 | 0.0 | 0.00 | 0.00 | 0.00 | 80 | 1016.4 |
| 20260503051532 | 53 | 102 | 0.0 | 0.0 | 0.00 | 0.00 | 0.00 | 79 | 1016.4 |
| 20260503051332 | 53 | 102 | 0.0 | 0.0 | 0.00 | 0.00 | 0.00 | 79 | 1016.4 |
| 20260503051126 | 53 | 102 | 0.0 | 0.0 | 0.00 | 0.00 | 0.00 | 79 | 1016.4 |
| 20260503050608 | 53 | 102 | 0.0 | 1.0 | 0.00 | 0.00 | 0.00 | 79 | 1016.2 |
| 20260503050357 | 53 | 102 | 0.0 | 1.0 | 0.00 | 0.00 | 0.00 | 79 | 1016.2 |
| 20260503050148 | 53 | 87 | 0.0 | 1.0 | 0.00 | 0.00 | 0.00 | 79 | 1016.2 |
| 20260503045948 | 53 | 227 | 0.0 | 0.0 | 0.00 | 0.00 | 0.00 | 79 | 1016.3 |
| 20260503045743 | 53 | 227 | 0.0 | 0.0 | 0.00 | 0.00 | 0.00 | 79 | 1016.2 |
| 20260503045536 | 53 | 115 | 0.0 | 0.0 | 0.00 | 0.00 | 0.00 | 79 | 1016.3 |
| 20260503045335 | 52 | 116 | 0.0 | 2.0 | 0.00 | 0.00 | 0.00 | 79 | 1016.2 |
| 20260503045126 | 52 | 116 | 0.0 | 2.0 | 0.00 | 0.00 | 0.00 | 79 | 1016.2 |
| 20260503044924 | 53 | 116 | 0.0 | 2.0 | 0.00 | 0.00 | 0.00 | 78 | 1016.3 |
| 20260503044726 | 53 | 124 | 0.0 | 2.0 | 0.00 | 0.00 | 0.00 | 78 | 1016.4 |
| 20260503044157 | 53 | 262 | 0.0 | 0.0 | 0.00 | 0.00 | 0.00 | 78 | 1016.3 |
| 20260503043949 | 53 | 262 | 0.0 | 0.0 | 0.00 | 0.00 | 0.00 | 78 | 1016.3 |
| 20260503043742 | 53 | 262 | 0.0 | 0.0 | 0.00 | 0.00 | 0.00 | 78 | 1016.4 |
| 20260503043536 | 53 | 262 | 0.0 | 0.0 | 0.00 | 0.00 | 0.00 | 78 | 1016.4 |
| 20260503043337 | 53 | 262 | 0.0 | 0.0 | 0.00 | 0.00 | 0.00 | 78 | 1016.4 |
| 20260503043128 | 53 | 262 | 0.0 | 0.0 | 0.00 | 0.00 | 0.00 | 78 | 1016.4 |
| 20260503042923 | 53 | 262 | 0.0 | 0.0 | 0.00 | 0.00 | 0.00 | 78 | 1016.4 |
| 20260503042716 | 53 | 262 | 0.0 | 3.0 | 0.00 | 0.00 | 0.00 | 78 | 1016.4 |
| 20260503042510 | 53 | 309 | 0.0 | 3.0 | 0.00 | 0.00 | 0.00 | 77 | 1016.3 |
| 20260503042311 | 54 | 108 | 0.0 | 3.0 | 0.00 | 0.00 | 0.00 | 76 | 1016.4 |
| 20260503042110 | 54 | 124 | 0.0 | 3.0 | 0.00 | 0.00 | 0.00 | 76 | 1016.4 |
| 20260503041909 | 55 | 214 | 0.0 | 1.0 | 0.00 | 0.00 | 0.00 | 76 | 1016.3 |
| 20260503041700 | 55 | 225 | 0.0 | 0.0 | 0.00 | 0.00 | 0.00 | 76 | 1016.2 |
| 20260503041137 | 54 | 210 | 0.0 | 2.0 | 0.00 | 0.00 | 0.00 | 76 | 1016.3 |
| 20260503040930 | 54 | 210 | 0.0 | 2.0 | 0.00 | 0.00 | 0.00 | 76 | 1016.3 |
| 20260503040729 | 54 | 213 | 0.0 | 2.0 | 0.00 | 0.00 | 0.00 | 76 | 1016.3 |
| 20260503040523 | 54 | 222 | 0.0 | 2.0 | 0.00 | 0.00 | 0.00 | 77 | 1016.4 |
| 20260503035959 | 54 | 243 | 1.0 | 2.0 | 0.00 | 0.00 | 0.00 | 77 | 1016.4 |
| 20260503035754 | 54 | 236 | 1.0 | 5.0 | 0.00 | 0.00 | 0.00 | 77 | 1016.4 |
| 20260503035555 | 54 | 200 | 1.0 | 5.0 | 0.00 | 0.00 | 0.00 | 77 | 1016.5 |
| 20260503035348 | 54 | 185 | 0.0 | 5.0 | 0.00 | 0.00 | 0.00 | 77 | 1016.4 |
| 20260503035144 | 54 | 233 | 0.0 | 5.0 | 0.00 | 0.00 | 0.00 | 77 | 1016.5 |
| 20260503034943 | 53 | 207 | 1.0 | 5.0 | 0.00 | 0.00 | 0.00 | 77 | 1016.4 |
| 20260503034738 | 53 | 215 | 1.0 | 5.0 | 0.00 | 0.00 | 0.00 | 77 | 1016.5 |
| 20260503034531 | 54 | 219 | 1.0 | 5.0 | 0.00 | 0.00 | 0.00 | 76 | 1016.5 |
| 20260503034327 | 54 | 238 | 1.0 | 5.0 | 0.00 | 0.00 | 0.00 | 76 | 1016.5 |
| 20260503034123 | 54 | 239 | 1.0 | 5.0 | 0.00 | 0.00 | 0.00 | 75 | 1016.6 |
| 20260503033913 | 55 | 238 | 0.0 | 4.0 | 0.00 | 0.00 | 0.00 | 75 | 1016.6 |
| 20260503033714 | 55 | 228 | 0.0 | 4.0 | 0.00 | 0.00 | 0.00 | 75 | 1016.5 |
| 20260503033507 | 55 | 233 | 0.0 | 4.0 | 0.00 | 0.00 | 0.00 | 75 | 1016.5 |
| 20260503033307 | 55 | 176 | 0.0 | 4.0 | 0.00 | 0.00 | 0.00 | 75 | 1016.4 |
| 20260503033103 | 55 | 216 | 0.0 | 4.0 | 0.00 | 0.00 | 0.00 | 75 | 1016.4 |
| 20260503032859 | 55 | 198 | 0.0 | 4.0 | 0.00 | 0.00 | 0.00 | 75 | 1016.4 |
| 20260503032650 | 55 | 206 | 0.0 | 4.0 | 0.00 | 0.00 | 0.00 | 75 | 1016.5 |
| 20260503032448 | 55 | 203 | 1.0 | 4.0 | 0.00 | 0.00 | 0.00 | 75 | 1016.4 |
| 20260503032239 | 54 | 209 | 1.0 | 4.0 | 0.00 | 0.00 | 0.00 | 75 | 1016.4 |
| 20260503032038 | 54 | 210 | 1.0 | 4.0 | 0.00 | 0.00 | 0.00 | 75 | 1016.4 |
| 20260503031837 | 54 | 214 | 1.0 | 4.0 | 0.00 | 0.00 | 0.00 | 75 | 1016.4 |
| 20260503031627 | 54 | 186 | 1.0 | 4.0 | 0.00 | 0.00 | 0.00 | 75 | 1016.4 |
| 20260503031424 | 54 | 197 | 1.0 | 4.0 | 0.00 | 0.00 | 0.00 | 75 | 1016.5 |
| 20260503031224 | 54 | 202 | 0.0 | 4.0 | 0.00 | 0.00 | 0.00 | 75 | 1016.4 |
| 20260503031023 | 54 | 210 | 0.0 | 4.0 | 0.00 | 0.00 | 0.00 | 75 | 1016.4 |
| 20260503030815 | 53 | 200 | 0.0 | 4.0 | 0.00 | 0.00 | 0.00 | 75 | 1016.3 |
| 20260503030605 | 53 | 229 | 0.0 | 4.0 | 0.00 | 0.00 | 0.00 | 75 | 1016.5 |
| 20260503030356 | 53 | 231 | 1.0 | 4.0 | 0.00 | 0.00 | 0.00 | 75 | 1016.4 |
| 20260503025833 | 54 | 238 | 1.0 | 4.0 | 0.00 | 0.00 | 0.00 | 75 | 1016.4 |
| 20260503025630 | 53 | 240 | 1.0 | 4.0 | 0.00 | 0.00 | 0.00 | 76 | 1016.5 |
| 20260503025421 | 53 | 221 | 2.0 | 7.0 | 0.00 | 0.00 | 0.00 | 75 | 1016.5 |
| 20260503025216 | 53 | 239 | 2.0 | 7.0 | 0.00 | 0.00 | 0.00 | 75 | 1016.5 |
| 20260503025012 | 53 | 236 | 2.0 | 7.0 | 0.00 | 0.00 | 0.00 | 74 | 1016.4 |
| 20260503024807 | 54 | 224 | 3.0 | 7.0 | 0.00 | 0.00 | 0.00 | 74 | 1016.4 |
| 20260503024241 | 53 | 248 | 3.0 | 7.0 | 0.00 | 0.00 | 0.00 | 74 | 1016.3 |
| 20260503023723 | 53 | 255 | 2.0 | 7.0 | 0.00 | 0.00 | 0.00 | 75 | 1016.5 |
| 20260503023516 | 53 | 224 | 2.0 | 5.0 | 0.00 | 0.00 | 0.00 | 75 | 1016.5 |
| 20260503023317 | 53 | 217 | 2.0 | 5.0 | 0.00 | 0.00 | 0.00 | 75 | 1016.5 |
| 20260503023112 | 53 | 232 | 1.0 | 5.0 | 0.00 | 0.00 | 0.00 | 75 | 1016.5 |
| 20260503022902 | 53 | 225 | 1.0 | 5.0 | 0.00 | 0.00 | 0.00 | 75 | 1016.5 |
| 20260503022700 | 53 | 245 | 1.0 | 5.0 | 0.00 | 0.00 | 0.00 | 75 | 1016.5 |
| 20260503022459 | 53 | 196 | 1.0 | 5.0 | 0.00 | 0.00 | 0.00 | 76 | 1016.5 |
| 20260503022252 | 53 | 233 | 1.0 | 6.0 | 0.00 | 0.00 | 0.00 | 76 | 1016.5 |
| 20260503021727 | 52 | 269 | 1.0 | 6.0 | 0.00 | 0.00 | 0.00 | 76 | 1016.6 |
| 20260503021519 | 52 | 243 | 1.0 | 6.0 | 0.00 | 0.00 | 0.00 | 76 | 1016.7 |
| 20260503021313 | 53 | 252 | 2.0 | 9.0 | 0.00 | 0.00 | 0.00 | 76 | 1016.7 |
| 20260503021103 | 53 | 249 | 3.0 | 9.0 | 0.00 | 0.00 | 0.00 | 76 | 1016.8 |
| 20260503020858 | 52 | 236 | 3.0 | 9.0 | 0.00 | 0.00 | 0.00 | 76 | 1016.7 |
| 20260503020331 | 52 | 244 | 4.0 | 9.0 | 0.00 | 0.00 | 0.00 | 76 | 1016.7 |
| 20260503020124 | 53 | 217 | 4.0 | 9.0 | 0.00 | 0.00 | 0.00 | 76 | 1016.7 |
| 20260503015916 | 53 | 243 | 4.0 | 9.0 | 0.00 | 0.00 | 0.00 | 75 | 1016.7 |
| 20260503015715 | 53 | 236 | 5.0 | 9.0 | 0.00 | 0.00 | 0.00 | 75 | 1016.7 |
| 20260503015505 | 53 | 239 | 4.0 | 9.0 | 0.00 | 0.00 | 0.00 | 75 | 1016.6 |
| 20260503015254 | 53 | 245 | 4.0 | 8.0 | 0.00 | 0.00 | 0.00 | 75 | 1016.8 |
| 20260503015046 | 53 | 245 | 4.0 | 8.0 | 0.00 | 0.00 | 0.00 | 76 | 1016.8 |
| 20260503014841 | 53 | 299 | 4.0 | 8.0 | 0.00 | 0.00 | 0.00 | 76 | 1016.7 |
| 20260503014321 | 52 | 239 | 4.0 | 8.0 | 0.00 | 0.00 | 0.00 | 76 | 1016.7 |
| 20260503014114 | 53 | 238 | 5.0 | 8.0 | 0.00 | 0.00 | 0.00 | 75 | 1016.7 |
| 20260503013915 | 53 | 240 | 5.0 | 8.0 | 0.00 | 0.00 | 0.00 | 75 | 1016.7 |
| 20260503013346 | 53 | 232 | 5.0 | 7.0 | 0.00 | 0.00 | 0.00 | 75 | 1016.8 |
| 20260503013140 | 53 | 249 | 5.0 | 7.0 | 0.00 | 0.00 | 0.00 | 75 | 1016.8 |
| 20260503012300 | 54 | 238 | 2.0 | 7.0 | 0.00 | 0.00 | 0.00 | 74 | 1016.8 |
| 20260503012051 | 54 | 241 | 1.0 | 7.0 | 0.00 | 0.00 | 0.00 | 74 | 1016.9 |
| 20260503011850 | 54 | 235 | 1.0 | 7.0 | 0.00 | 0.00 | 0.00 | 74 | 1016.8 |
| 20260503011644 | 54 | 229 | 0.0 | 4.0 | 0.00 | 0.00 | 0.00 | 74 | 1016.9 |
| 20260503011443 | 54 | 240 | 0.0 | 3.0 | 0.00 | 0.00 | 0.00 | 74 | 1016.9 |
| 20260503011244 | 54 | 252 | 0.0 | 1.0 | 0.00 | 0.00 | 0.00 | 73 | 1017.0 |
| 20260503011039 | 54 | 240 | 0.0 | 0.0 | 0.00 | 0.00 | 0.00 | 74 | 1016.9 |
| 20260503010828 | 55 | 229 | 0.0 | 4.0 | 0.00 | 0.00 | 0.00 | 73 | 1016.9 |
| 20260503010629 | 55 | 234 | 1.0 | 4.0 | 0.00 | 0.00 | 0.00 | 73 | 1016.9 |
| 20260503010419 | 55 | 192 | 1.0 | 4.0 | 0.00 | 0.00 | 0.00 | 73 | 1017.0 |
| 20260503005859 | 55 | 217 | 1.0 | 3.0 | 0.00 | 0.00 | 0.00 | 73 | 1017.0 |
| 20260503005652 | 55 | 226 | 1.0 | 3.0 | 0.00 | 0.00 | 0.00 | 73 | 1017.0 |
| 20260503005450 | 54 | 230 | 1.0 | 3.0 | 0.00 | 0.00 | 0.00 | 74 | 1017.0 |
| 20260503005248 | 54 | 240 | 1.0 | 3.0 | 0.00 | 0.00 | 0.00 | 74 | 1017.0 |
| 20260503005042 | 54 | 256 | 0.0 | 5.0 | 0.00 | 0.00 | 0.00 | 74 | 1017.0 |
| 20260503004842 | 54 | 231 | 0.0 | 5.0 | 0.00 | 0.00 | 0.00 | 74 | 1017.1 |
| 20260503004643 | 54 | 225 | 1.0 | 5.0 | 0.00 | 0.00 | 0.00 | 74 | 1017.1 |
| 20260503004441 | 54 | 250 | 1.0 | 5.0 | 0.00 | 0.00 | 0.00 | 74 | 1017.0 |
| 20260503004239 | 54 | 233 | 2.0 | 5.0 | 0.00 | 0.00 | 0.00 | 75 | 1017.1 |
| 20260503004032 | 54 | 234 | 2.0 | 5.0 | 0.00 | 0.00 | 0.00 | 75 | 1017.1 |
| 20260503003829 | 54 | 233 | 2.0 | 5.0 | 0.00 | 0.00 | 0.00 | 75 | 1017.2 |
| 20260503002951 | 54 | 207 | 1.0 | 6.0 | 0.00 | 0.00 | 0.00 | 75 | 1017.3 |
| 20260503002749 | 54 | 210 | 1.0 | 6.0 | 0.00 | 0.00 | 0.00 | 74 | 1017.4 |
| 20260503002550 | 55 | 239 | 2.0 | 6.0 | 0.00 | 0.00 | 0.00 | 74 | 1017.4 |
| 20260503002347 | 55 | 318 | 2.0 | 6.0 | 0.00 | 0.00 | 0.00 | 74 | 1017.4 |
| 20260503002142 | 55 | 256 | 3.0 | 6.0 | 0.00 | 0.00 | 0.00 | 73 | 1017.2 |
| 20260503001625 | 56 | 110 | 2.0 | 6.0 | 0.00 | 0.00 | 0.00 | 73 | 1017.0 |
| 20260503001420 | 56 | 100 | 2.0 | 6.0 | 0.00 | 0.00 | 0.00 | 73 | 1017.0 |
| 20260503001214 | 56 | 121 | 1.0 | 6.0 | 0.00 | 0.00 | 0.00 | 73 | 1017.2 |
| 20260503001015 | 56 | 99 | 0.0 | 7.0 | 0.00 | 0.00 | 0.00 | 73 | 1017.2 |
| 20260503000815 | 56 | 129 | 0.0 | 7.0 | 0.00 | 0.00 | 0.00 | 73 | 1017.3 |
| 20260503000605 | 56 | 167 | 0.0 | 7.0 | 0.00 | 0.00 | 0.00 | 73 | 1017.4 |
| 20260503000408 | 56 | 97 | 0.0 | 7.0 | 0.00 | 0.00 | 0.00 | 72 | 1017.5 |
| 20260503000204 | 56 | 122 | 0.0 | 7.0 | 0.00 | 0.00 | 0.00 | 71 | 1017.5 |
| 20260503000001 | 56 | 129 | 1.0 | 7.0 | 0.00 | 0.00 | 0.00 | 71 | 1017.5 |
| 20260502235802 | 56 | 208 | 1.0 | 7.0 | 0.00 | 0.00 | 0.00 | 71 | 1017.5 |
| 20260502235600 | 56 | 146 | 2.0 | 7.0 | 0.00 | 0.00 | 0.00 | 71 | 1017.6 |
| 20260502235354 | 57 | 201 | 2.0 | 7.0 | 0.00 | 0.00 | 0.00 | 71 | 1017.6 |
| 20260502235145 | 57 | 226 | 2.0 | 7.0 | 0.00 | 0.00 | 0.00 | 71 | 1017.6 |
| 20260502234941 | 56 | 210 | 2.0 | 5.0 | 0.00 | 0.00 | 0.00 | 71 | 1017.6 |
| 20260502234732 | 56 | 169 | 2.0 | 5.0 | 0.00 | 0.00 | 0.00 | 71 | 1017.5 |
| 20260502234529 | 56 | 251 | 2.0 | 7.0 | 0.00 | 0.00 | 0.00 | 71 | 1017.6 |
| 20260502234005 | 56 | 201 | 2.0 | 7.0 | 0.00 | 0.00 | 0.00 | 71 | 1017.6 |
| 20260502233757 | 56 | 258 | 2.0 | 7.0 | 0.00 | 0.00 | 0.00 | 71 | 1017.7 |
| 20260502233549 | 56 | 219 | 2.0 | 7.0 | 0.00 | 0.00 | 0.00 | 71 | 1017.7 |
| 20260502233021 | 56 | 224 | 3.0 | 7.0 | 0.00 | 0.00 | 0.00 | 70 | 1017.8 |
| 20260502232811 | 56 | 217 | 3.0 | 7.0 | 0.00 | 0.00 | 0.00 | 69 | 1017.7 |
| 20260502232609 | 56 | 245 | 3.0 | 6.0 | 0.00 | 0.00 | 0.00 | 69 | 1017.8 |
| 20260502232403 | 56 | 231 | 3.0 | 6.0 | 0.00 | 0.00 | 0.00 | 69 | 1017.8 |
| 20260502232153 | 56 | 223 | 3.0 | 6.0 | 0.00 | 0.00 | 0.00 | 69 | 1017.8 |
| 20260502231943 | 56 | 293 | 3.0 | 6.0 | 0.00 | 0.00 | 0.00 | 69 | 1017.8 |
| 20260502231740 | 56 | 226 | 3.0 | 9.0 | 0.00 | 0.00 | 0.00 | 69 | 1017.8 |
| 20260502231220 | 57 | 238 | 3.0 | 9.0 | 0.00 | 0.00 | 0.00 | 69 | 1017.9 |
| 20260502231015 | 57 | 214 | 3.0 | 9.0 | 0.00 | 0.00 | 0.00 | 68 | 1017.9 |
| 20260502230807 | 57 | 226 | 3.0 | 9.0 | 0.00 | 0.00 | 0.00 | 68 | 1017.9 |
| 20260502230603 | 57 | 247 | 4.0 | 9.0 | 0.00 | 0.00 | 0.00 | 68 | 1018.0 |
| 20260502230353 | 57 | 246 | 4.0 | 9.0 | 0.00 | 0.00 | 0.00 | 68 | 1018.0 |
| 20260502230151 | 57 | 278 | 4.0 | 9.0 | 0.00 | 0.00 | 0.00 | 68 | 1018.0 |
| 20260502225941 | 57 | 210 | 4.0 | 9.0 | 0.00 | 0.00 | 0.00 | 68 | 1017.9 |
| 20260502225731 | 57 | 223 | 4.0 | 8.0 | 0.00 | 0.00 | 0.00 | 68 | 1018.0 |
| 20260502225204 | 57 | 222 | 4.0 | 7.0 | 0.00 | 0.00 | 0.00 | 68 | 1017.9 |
| 20260502224955 | 57 | 206 | 3.0 | 7.0 | 0.00 | 0.00 | 0.00 | 68 | 1018.1 |
| 20260502224748 | 57 | 218 | 3.0 | 7.0 | 0.00 | 0.00 | 0.00 | 68 | 1018.1 |
| 20260502224549 | 57 | 227 | 4.0 | 7.0 | 0.00 | 0.00 | 0.00 | 68 | 1018.1 |
| 20260502224343 | 57 | 228 | 3.0 | 7.0 | 0.00 | 0.00 | 0.00 | 69 | 1018.1 |
| 20260502224141 | 57 | 227 | 3.0 | 7.0 | 0.00 | 0.00 | 0.00 | 69 | 1018.1 |
| 20260502223942 | 57 | 252 | 4.0 | 7.0 | 0.00 | 0.00 | 0.00 | 69 | 1018.0 |
| 20260502223737 | 57 | 240 | 3.0 | 6.0 | 0.00 | 0.00 | 0.00 | 69 | 1018.1 |
| 20260502223528 | 56 | 218 | 3.0 | 6.0 | 0.00 | 0.00 | 0.00 | 70 | 1018.0 |
| 20260502223320 | 56 | 211 | 3.0 | 7.0 | 0.00 | 0.00 | 0.00 | 70 | 1018.1 |
| 20260502223120 | 56 | 252 | 3.0 | 7.0 | 0.00 | 0.00 | 0.00 | 71 | 1018.0 |
| 20260502222916 | 56 | 221 | 3.0 | 7.0 | 0.00 | 0.00 | 0.00 | 72 | 1018.1 |
| 20260502222711 | 56 | 219 | 3.0 | 7.0 | 0.00 | 0.00 | 0.00 | 72 | 1018.0 |
| 20260502222503 | 57 | 210 | 3.0 | 7.0 | 0.00 | 0.00 | 0.00 | 72 | 1018.1 |